Temp
7 7 7 7 7 7 7 8 9 9 8 8 8 8 8 8 11 12 11 18 20 20 19 21 21 21 21 20 21 19 18 17 21 23 25 26 25 26 28 30 29 30 30 31 32
7 7 7 7 7 7 7 7 7 8 8 8 8 8 8 9 10 9 17 15 16 16 17 19 20 20 19 20 20 20 17 20 22 25 25 25 25 27 27 25 27 30 31 31 33
7 7 7 7 7 7 7 7 7 8 8 8 8 7 7 10 9 14 16 16 16 17 16 17 18 20 19 19 20 20 21 23 24 25 25 25 25 26 27 25 26 29 27 27 30
6 7 7 7 7 7 7 7 7 7 7 7 7 7 8 10 15 18 16 17 17 18 16 17 17 19 17 19 20 20 22 24 24 25 25 25 25 25 25 26 27 26 27 27 26
6 7 7 7 7 7 7 7 8 7 8 7 7 7 8 7 9 18 17 16 16 16 16 16 17 19 18 19 21 21 21 23 24 25 25 25 24 24 25 26 27 27 26 25 25
7 8 9 8 6 7 11 11 12 10 8 8 8 8 8 7 15 15 15 15 14 14 15 16 17 19 19 20 22 21 21 22 23 23 23 24 24 24 25 26 26 27 27 25 25
10 10 10 9 7 7 11 12 13 11 11 9 8 8 9 8 15 14 13 13 14 12 13 15 17 17 19 19 20 21 21 20 21 22 23 25 24 24 25 26 26 27 27 26 25
8 9 9 10 8 9 11 13 13 13 12 11 8 8 8 14 13 14 15 15 14 15 11 14 16 16 18 19 20 20 20 20 23 21 23 24 23 26 26 26 26 27 27 26 24
7 7 8 9 7 9 12 13 13 11 12 10 9 8 8 14 12 16 15 14 15 15 13 16 16 16 18 17 17 17 20 19 21 23 23 24 23 25 26 26 25 24 24 24 23
6 6 8 10 11 12 13 14 13 13 11 10 9 8 11 14 16 16 16 15 14 14 14 14 15 14 13 15 17 17 17 20 20 21 22 22 23 24 25 25 23 23 23 24 24
6 6 8 10 11 12 12 13 9 9 11 10 11 12 13 14 15 15 16 15 15 14 13 14 14 15 17 18 19 18 19 19 21 21 22 22 22 23 22 22 24 24 25 26 25
7 6 8 10 11 12 12 10 11 10 7 11 11 11 12 13 13 15 16 13 14 13 13 14 14 16 18 17 17 17 17 17 18 20 20 20 19 19 21 21 21 23 23 23 23
9 6 6 10 11 11 11 12 11 10 7 10 12 13 13 15 14 15 15 14 14 13 13 12 15 17 17 17 16 16 16 17 18 19 19 19 19 20 21 20 21 22 22 21 22
7 5 6 10 11 10 11 11 11 10 7 12 14 15 15 15 15 16 15 14 13 13 13 13 15 16 16 16 16 15 17 18 18 18 16 20 18 20 21 21 21 22 23 23 20
6 6 6 6 8 8 12 11 11 10 9 14 15 16 15 14 16 15 15 12 13 14 14 14 16 15 15 16 16 16 19 17 18 17 17 18 16 19 20 19 21 22 23 23 21
8 6 6 8 8 12 11 11 11 8 9 12 13 13 12 14 15 14 13 15 15 13 14 14 16 16 16 17 17 18 16 16 16 15 13 16 17 19 20 21 22 22 22 20 20
11 12 11 10 10 11 11 9 7 8 12 11 11 12 12 13 14 14 14 13 12 12 12 14 14 15 17 16 16 17 13 12 13 12 15 17 16 20 20 21 21 21 20 19 19
12 12 12 12 12 11 10 7 8 11 11 12 12 12 12 12 13 13 14 12 12 11 11 12 13 15 16 15 14 13 13 12 14 13 15 17 16 19 20 22 23 23 20 20 19
12 12 12 12 12 12 7 5 9 10 11 11 11 11 11 12 11 11 12 12 11 10 10 11 13 14 16 17 16 14 13 14 14 15 14 15 17 19 21 22 22 21 21 20 19
9 9 11 12 12 11 6 9 9 11 11 11 10 11 10 10 9 9 11 12 12 13 11 12 13 14 16 16 16 15 15 14 11 14 14 15 16 18 19 20 22 20 19 19 19
8 8 11 11 11 6 5 7 9 11 11 11 10 10 10 10 10 9 11 12 12 12 12 11 11 12 14 14 14 14 14 14 13 12 14 15 15 16 19 21 21 19 18 18 17
5 8 11 11 6 1 4 9 10 10 11 11 10 10 10 10 9 10 11 12 12 11 11 10 9 10 11 13 13 14 14 13 13 14 15 13 14 18 19 18 18 18 19 20 16
6 6 10 11 4 2 6 8 9 10 10 10 10 11 11 10 9 10 11 12 12 12 11 11 9 9 11 13 12 12 13 13 12 11 12 15 15 18 18 19 18 17 19 18 17
5 6 4 3 4 6 7 8 8 10 9 10 9 10 9 8 9 9 10 11 11 12 13 11 9 9 9 12 11 11 12 12 11 11 13 15 16 18 19 19 17 18 18 17 17
3 4 6 3 4 4 6 8 8 10 10 9 8 10 9 8 9 9 10 10 11 11 10 10 10 10 10 10 11 11 11 11 11 13 12 15 15 16 16 16 17 17 18 18 17
3 4 4 3 4 7 8 8 9 10 8 8 8 9 9 8 8 8 9 9 8 9 10 9 9 9 10 11 11 11 12 12 12 12 13 13 13 15 16 17 17 18 18 19 19
5 5 4 5 4 5 6 9 9 8 9 9 9 8 9 9 10 10 10 9 9 9 9 9 9 9 9 11 11 10 11 12 13 13 13 12 14 15 16 16 17 18 18 18 19
Height
821 818 815 812 809 806 803 800 798 796 794 792 790 787 783 780 773 769 765 760 759 757 758 760 763 761 763 764 762 765 788 795 777 772 759 745 749 733 728 730 726 722 722 718 717
821 819 816 813 810 806 803 800 797 795 792 790 787 785 782 778 772 765 759 757 755 754 755 759 757 760 764 763 762 767 783 772 758 750 751 747 747 742 740 741 735 725 717 717 718
822 819 816 813 810 807 803 799 795 791 789 788 787 784 781 776 771 757 755 754 754 753 752 757 757 757 764 759 758 758 759 747 744 744 743 742 742 737 740 744 731 727 726 722 720
821 818 815 812 808 805 801 797 793 790 787 785 784 783 781 777 775 755 755 752 751 751 753 754 756 756 759 756 749 757 742 739 737 740 743 742 737 737 738 732 724 723 721 717 719
819 816 812 809 805 800 795 792 789 787 784 783 783 784 783 784 768 754 753 751 751 751 750 752 753 751 752 746 746 750 741 736 735 737 737 737 736 734 729 724 717 718 718 717 715
818 814 810 806 802 797 793 789 785 782 780 780 781 783 786 788 754 752 750 748 748 750 750 749 745 744 744 741 740 734 735 736 737 737 737 739 730 732 716 711 717 713 710 710 709
816 812 808 803 799 794 790 785 781 779 776 776 777 781 782 768 754 751 749 747 744 745 746 744 743 746 738 741 735 734 742 739 736 736 739 733 732 719 718 713 712 710 706 705 705
815 810 806 802 798 793 788 785 780 777 774 774 776 780 774 754 752 748 746 743 743 740 741 739 741 741 741 734 735 741 744 750 722 733 733 735 727 709 707 713 710 704 700 700 699
813 809 805 801 797 792 787 782 777 776 774 773 776 779 773 753 749 743 742 741 738 737 735 736 736 737 737 746 751 746 741 743 736 721 728 732 709 708 705 709 709 707 703 700 699
812 807 802 797 793 789 785 780 775 775 774 774 777 783 761 750 743 738 735 735 737 736 737 737 736 738 744 746 740 742 744 733 735 723 725 729 706 710 709 709 708 707 701 697 693
811 805 800 796 792 789 787 782 783 781 778 775 769 767 756 747 744 735 731 731 733 738 744 735 739 729 712 714 722 728 730 732 724 721 721 721 712 712 711 708 705 700 695 690 687
807 803 797 793 791 789 789 789 792 795 787 766 762 761 752 747 743 731 730 734 731 740 740 739 729 723 720 725 728 731 737 739 731 723 723 727 724 720 712 707 703 696 691 690 686
805 800 795 791 789 788 788 789 788 788 793 767 757 753 746 743 739 731 730 729 730 732 738 744 727 718 721 724 730 733 738 737 737 729 723 728 720 713 703 699 693 687 685 683 680
802 796 793 788 789 787 786 786 785 784 796 768 754 748 743 738 737 732 731 730 729 728 730 734 722 720 723 726 726 737 728 728 733 740 749 722 729 710 698 694 690 682 675 673 678
799 794 789 788 786 785 785 783 781 783 794 761 753 748 746 743 734 730 727 728 728 723 722 726 718 721 723 724 721 729 720 728 729 738 740 737 749 699 694 693 680 672 665 663 667
793 788 785 785 785 782 781 780 781 797 795 764 759 758 753 741 733 730 733 719 719 723 718 721 714 714 715 713 715 714 725 733 737 746 756 737 744 688 692 675 666 664 661 660 660
789 784 781 783 782 780 778 778 801 804 774 772 767 760 757 747 737 732 726 726 727 729 726 717 718 712 711 719 716 718 735 759 761 761 740 723 737 684 670 664 664 664 660 658 656
787 785 783 782 781 779 777 789 800 781 777 771 767 761 756 749 742 738 730 731 727 733 729 724 726 713 707 715 722 728 733 746 739 746 732 720 722 681 665 656 656 656 659 657 654
785 784 783 783 781 779 784 811 794 787 780 777 769 764 762 752 755 747 740 735 741 742 739 736 720 712 706 704 711 720 730 722 731 728 735 718 695 672 662 657 654 659 659 656 651
788 785 784 784 782 781 796 792 788 781 778 775 776 768 769 763 762 758 746 737 736 733 735 732 724 716 709 705 705 711 711 726 746 733 731 714 702 688 671 665 654 662 661 654 645
789 790 788 785 784 791 811 800 788 777 777 775 772 772 765 766 762 759 747 741 738 734 732 736 735 724 718 717 715 718 720 718 727 732 722 718 701 672 659 658 662 665 660 656 647
796 796 788 786 799 814 810 794 786 778 773 773 772 771 766 765 764 757 748 741 738 739 742 741 745 742 730 717 716 717 719 721 725 718 713 724 707 661 661 662 663 663 654 648 646
804 802 789 787 816 820 803 794 787 781 778 772 770 766 762 766 769 758 748 738 739 739 741 740 748 748 731 720 719 721 719 722 724 726 720 712 687 659 657 656 660 663 654 651 648
807 809 801 799 806 805 800 792 789 780 778 773 771 767 769 769 764 759 749 743 739 739 733 739 747 743 748 725 725 727 722 721 725 729 707 687 688 673 663 662 664 660 656 653 649
813 818 812 817 810 810 803 793 789 778 775 775 773 767 771 766 758 755 747 743 740 735 738 739 738 736 735 729 725 725 722 718 720 711 710 683 687 686 675 672 667 662 656 649 649
820 820 816 816 810 799 794 790 785 779 784 776 774 767 764 763 762 753 750 746 746 739 737 740 737 736 730 719 717 718 711 710 707 703 693 694 689 688 679 663 663 658 654 647 645
817 817 818 810 810 808 801 786 784 786 777 773 768 765 759 751 746 741 739 736 739 738 740 740 738 735 733 714 713 720 700 697 689 686 683 685 683 683 678 666 658 653 647 644 638
Wind_Speed
17 18 19 20 20 21 21 21 21 21 20 20 19 20 22 25 29 27 7 16 12 11 11 17 6 9 3 3 5 4 3 5 7 7 4 1 5 7 5 3 5 2 3 4 7
19 19 20 20 20 21 22 22 22 21 21 20 20 20 20 23 24 15 14 10 13 16 15 8 7 7 3 5 5 5 5 10 6 12 5 5 2 2 6 6 4 3 2 15 7
19 20 20 20 20 21 21 22 23 23 22 21 20 20 20 20 6 6 9 9 18 14 10 14 8 7 7 5 7 7 10 13 8 9 5 9 10 6 2 7 6 1 7 5 1
20 21 22 22 22 23 22 22 22 22 22 21 19 18 17 7 6 2 9 21 22 9 8 5 7 5 8 11 5 6 14 16 6 6 4 14 8 4 8 12 7 10 8 6 9
22 22 24 25 26 26 25 24 22 21 20 18 15 11 7 5 11 15 21 17 15 11 2 6 11 6 9 6 6 13 5 9 15 12 12 10 14 15 16 11 11 9 10 12 10
23 23 25 25 27 27 20 19 19 23 19 14 8 3 1 4 8 15 20 29 28 18 9 6 7 7 6 6 18 3 12 17 8 5 6 7 15 5 9 11 14 14 15 11 9
25 26 27 28 28 27 24 19 20 20 17 10 4 5 6 16 15 26 25 22 26 20 5 13 18 8 3 2 7 2 5 3 6 4 7 2 23 21 12 13 16 16 17 13 11
26 28 28 29 27 27 23 19 16 12 8 6 6 7 7 19 18 18 9 18 18 20 21 23 15 3 4 3 1 6 3 13 13 8 6 9 28 18 8 13 18 19 17 14 12
26 26 27 27 25 26 23 24 17 8 10 7 6 4 10 13 9 17 14 11 21 16 11 15 6 6 3 4 2 4 15 14 12 8 11 15 25 7 7 8 13 11 11 9 9
26 27 27 27 24 23 22 26 18 8 6 5 1 2 9 7 16 17 13 14 4 5 4 6 5 6 4 6 16 10 12 8 7 7 10 12 27 15 6 7 9 10 12 12 13
25 27 26 24 20 16 17 8 8 5 4 5 8 6 18 11 24 11 14 5 3 2 4 5 5 16 30 26 8 3 11 2 3 5 8 19 22 16 9 11 17 18 20 21 21
29 27 26 22 19 8 10 3 2 5 9 9 15 11 25 16 7 8 3 4 5 2 6 5 15 10 2 5 5 2 3 1 4 4 2 6 11 9 6 10 11 16 17 16 15
32 28 26 21 12 1 8 1 5 9 3 8 6 5 8 6 7 11 4 2 5 7 5 6 7 8 8 5 8 5 5 3 2 7 6 5 14 10 7 11 13 16 13 11 13
32 28 24 21 0 7 3 3 17 3 2 5 4 4 7 7 5 4 6 5 4 9 5 6 6 4 2 6 6 5 7 5 6 5 6 2 12 13 9 15 13 18 18 17 9
32 28 22 12 9 3 1 12 10 3 4 10 3 7 15 5 13 9 22 3 8 4 5 7 1 4 5 5 7 7 2 4 2 3 3 2 4 6 5 11 17 19 21 19 13
36 27 16 2 6 7 9 14 4 4 5 6 7 13 14 7 11 1 11 4 4 4 2 5 1 2 5 4 7 4 6 2 2 3 4 6 6 18 9 15 13 14 15 11 10
33 13 1 5 2 9 13 3 4 3 5 7 9 12 15 8 9 11 4 7 3 0 2 1 6 4 4 2 1 2 5 2 2 3 11 13 9 21 5 3 3 6 7 8 9
24 7 2 3 8 11 3 5 4 2 2 6 8 18 4 7 9 10 9 9 10 8 4 5 3 5 4 8 6 6 7 5 6 4 4 8 11 9 14 24 22 13 8 7 9
16 4 3 5 7 9 5 5 2 1 5 7 14 4 4 3 3 7 5 5 6 3 2 5 3 5 6 2 8 4 4 5 3 2 1 4 7 11 14 19 11 5 6 9 10
11 7 4 5 6 7 5 1 2 1 6 5 4 3 4 6 6 5 4 3 5 4 2 4 3 4 4 3 4 4 5 3 2 4 4 5 6 8 8 8 14 8 8 10 11
5 3 9 4 6 5 3 4 4 7 5 3 3 4 5 5 3 3 4 3 3 7 5 5 3 6 2 3 3 3 2 2 4 5 4 2 5 7 14 2 5 6 8 10 10
5 2 10 5 4 1 1 2 5 5 2 6 3 5 4 5 4 3 3 2 1 3 5 3 1 3 6 6 3 1 3 1 4 7 7 3 7 2 6 5 5 8 13 13 5
3 3 5 3 2 3 5 4 4 3 5 4 4 4 2 3 5 4 5 5 5 2 2 1 2 2 6 1 3 2 2 4 1 0 7 7 7 3 7 13 8 10 14 11 4
2 4 4 4 1 2 5 4 4 5 5 4 5 5 5 4 6 6 8 8 5 4 16 4 3 5 5 3 2 2 6 7 4 4 7 20 15 19 21 20 15 17 14 9 5
4 1 1 4 3 4 3 4 6 7 3 3 4 2 8 6 12 12 10 4 9 10 4 4 5 6 10 13 11 9 12 12 13 13 9 17 15 7 18 16 15 12 14 10 6
2 3 3 4 5 4 3 3 6 10 5 6 5 14 13 8 12 21 19 14 6 6 4 3 3 2 10 12 11 13 14 15 18 19 21 19 21 10 18 17 13 13 11 12 11
1 1 2 3 4 3 3 4 10 14 8 10 14 16 13 14 11 18 17 18 9 4 2 3 2 1 5 5 7 8 18 17 20 21 17 21 11 8 15 16 14 12 10 13 14
Wind_Direction
357 353 351 348 345 342 339 338 336 333 332 331 331 330 330 327 324 321 261 260 272 299 298 272 268 202 196 230 182 132 140 224 200 184 240 324 28 319 313 312 338 308 146 280 51
351 349 346 344 340 337 334 329 325 325 325 325 327 328 329 333 321 273 298 300 297 287 272 249 203 174 193 206 205 169 185 222 178 222 238 274 198 335 335 341 235 274 297 21 13
347 344 341 339 336 333 329 325 323 322 319 319 321 326 331 338 324 238 120 7 346 335 264 241 301 175 197 178 198 195 221 230 218 209 237 266 290 190 264 297 238 302 307 294 224
347 344 340 337 335 331 327 323 317 314 315 314 316 324 334 350 310 100 237 315 335 343 244 216 224 210 184 204 203 217 222 228 215 205 226 254 274 226 186 247 265 287 284 285 273
345 344 341 338 335 331 328 326 323 316 309 306 307 320 349 8 252 290 305 323 343 4 248 215 222 207 191 189 199 236 220 232 240 252 253 271 261 267 267 264 269 269 262 265 260
346 345 341 338 336 332 336 336 333 328 316 306 297 295 235 261 274 312 313 310 307 309 306 222 235 224 250 216 199 175 221 250 255 229 252 266 270 243 297 285 289 288 278 260 263
349 347 344 341 339 335 339 340 337 338 326 301 242 179 233 244 290 306 305 298 306 284 256 248 243 261 187 245 244 246 294 319 226 178 246 195 277 257 242 269 278 270 264 267 248
345 345 343 343 341 339 338 340 339 354 7 4 142 165 251 280 296 298 337 319 332 322 241 252 249 268 226 267 3 185 162 245 240 161 245 159 258 254 243 240 254 261 275 273 266
340 339 340 339 336 340 340 341 347 353 12 49 111 125 268 305 274 302 287 284 312 316 258 254 180 188 166 177 45 236 234 220 246 210 204 193 257 241 221 229 253 261 267 269 272
337 337 339 339 345 345 348 343 336 339 3 2 77 256 265 290 288 291 288 270 229 310 288 214 221 173 153 164 210 207 221 230 209 204 201 237 256 255 260 260 253 262 275 273 272
338 335 337 337 345 343 355 360 11 348 8 235 250 262 285 271 292 273 285 158 181 170 244 250 195 205 205 211 203 60 213 138 148 261 186 225 256 257 251 262 268 271 272 275 278
345 337 336 334 339 337 2 54 135 283 300 267 258 253 260 268 291 286 126 170 152 171 301 256 232 223 161 192 203 117 112 207 285 255 183 283 276 277 243 256 246 253 257 257 269
346 337 334 332 340 20 340 293 304 335 245 292 232 247 255 193 263 301 163 230 219 158 225 243 274 183 199 174 205 222 206 177 191 323 282 294 286 267 242 234 248 256 253 250 254
343 333 331 333 338 332 284 322 331 172 18 275 297 294 324 293 293 25 339 195 244 197 199 230 260 160 26 221 154 189 172 169 195 175 247 110 282 264 264 263 254 260 260 258 226
340 327 322 323 290 262 293 330 336 125 341 318 354 314 321 310 307 339 328 239 237 224 136 238 277 180 173 188 189 222 145 164 186 249 294 205 296 287 217 259 255 254 256 255 227
342 327 311 263 228 277 317 330 113 53 262 335 326 336 335 310 326 175 337 198 201 240 239 229 313 198 172 193 191 158 141 117 85 122 260 175 181 275 251 251 252 249 263 249 242
347 348 298 183 270 318 335 64 43 123 338 334 316 329 318 309 314 337 0 351 18 53 264 346 252 218 154 228 43 91 78 96 124 192 233 161 179 240 306 184 239 246 289 277 265
350 3 17 307 311 325 24 63 74 359 280 315 316 313 298 347 318 329 8 358 27 348 338 176 258 179 192 184 189 173 166 167 173 201 216 151 222 241 235 254 261 276 291 309 297
353 1 18 350 343 336 61 56 218 359 313 305 311 301 306 324 319 354 325 7 38 119 314 351 306 332 53 49 151 183 161 195 44 277 111 218 287 293 276 282 269 302 338 295 282
348 337 13 357 349 5 65 294 251 299 297 285 285 310 305 318 345 352 305 349 350 3 193 315 275 114 317 2 260 166 172 119 356 219 240 260 259 236 318 264 275 353 324 308 307
13 35 5 356 331 46 108 256 286 265 302 301 283 286 286 311 286 284 281 310 343 335 0 15 59 306 3 200 211 36 288 166 164 177 212 295 264 220 224 172 16 299 296 298 303
359 40 2 349 44 31 14 264 286 282 325 266 238 240 254 305 291 282 275 263 78 14 339 352 77 269 258 266 334 92 267 268 178 241 248 138 270 357 107 85 33 354 337 335 340
8 297 3 11 71 327 305 289 271 302 316 298 283 267 333 284 309 281 284 337 314 201 297 282 276 308 319 22 64 115 249 228 260 37 237 235 239 239 324 336 359 347 334 335 344
0 351 332 35 41 71 325 300 299 292 274 317 276 276 344 269 225 270 282 308 2 304 275 226 232 214 205 311 117 269 292 289 216 229 263 243 267 292 303 309 333 331 319 322 286
24 326 359 306 327 324 266 287 286 327 235 281 295 288 310 289 302 273 259 259 286 275 296 183 258 235 256 267 279 261 266 264 260 255 250 269 268 283 296 307 306 302 300 315 279
50 12 4 300 287 267 283 248 280 321 309 291 254 296 297 266 265 283 284 279 236 301 191 199 243 260 287 262 257 264 262 258 254 256 259 261 267 268 273 286 288 291 289 299 311
346 246 152 257 294 331 253 289 315 314 277 265 291 300 296 284 273 274 269 265 245 212 199 207 247 312 265 298 341 286 241 242 244 238 240 240 242 263 265 275 274 271 284 291 299